EW4547 Weather Reports


time (UTC)temp
C
wind
direction
speed
KPH
gust
KPH
rain 1hr
cm
rain 24hr
cm
rain mn
cm
humidity
%
barometer
mb
20260505224824 25 227 6.4 19.3 0.00 0.00 0.00 54 1015.6
20260505223346 25 186 8.0 19.3 0.00 0.00 0.00 53 1015.7
20260505221822 26 206 8.0 16.1 0.00 0.00 0.00 52 1015.9
20260505220323 26 234 9.7 22.5 0.00 0.00 0.00 51 1016.0
20260505214825 26 229 4.8 12.9 0.00 0.00 0.00 51 1016.0
20260505213337 26 242 4.8 16.1 0.00 0.00 0.00 52 1015.9
20260505211854 26 227 8.0 16.1 0.00 0.00 0.00 50 1015.9
20260505210334 26 235 9.7 25.7 0.00 0.00 0.00 51 1016.2
20260505204845 26 208 8.0 22.5 0.00 0.00 0.00 51 1016.2
20260505203326 26 250 4.8 19.3 0.00 0.00 0.00 51 1016.1
20260505201843 26 228 4.8 19.3 0.00 0.00 0.00 51 1016.2
20260505200352 26 244 8.0 25.7 0.00 0.00 0.00 50 1016.4
20260505194830 27 176 6.4 14.5 0.00 0.00 0.00 51 1016.6
20260505193346 26 218 6.4 17.7 0.00 0.00 0.00 52 1016.8
20260505191826 26 93 8.0 14.5 0.00 0.00 0.00 52 1017.1
20260505190343 26 238 8.0 16.1 0.00 0.00 0.00 52 1017.3
20260505184824 26 223 4.8 16.1 0.00 0.00 0.00 52 1017.6
20260505183333 26 226 11.3 19.3 0.00 0.00 0.00 53 1017.9
20260505181852 26 86 4.8 16.1 0.00 0.00 0.00 54 1017.9
20260505180343 26 128 3.2 19.3 0.00 0.00 0.00 54 1017.9
20260505174833 25 265 11.3 24.1 0.00 0.00 0.00 54 1018.0
20260505173333 25 202 6.4 14.5 0.00 0.00 0.00 57 1018.0
20260505171847 25 194 11.3 20.9 0.00 0.00 0.00 57 1018.1
20260505170332 25 207 6.4 16.1 0.00 0.00 0.00 59 1018.2
20260505164844 24 180 8.0 17.7 0.00 0.00 0.00 61 1018.4
20260505163327 24 239 3.2 16.1 0.00 0.00 0.00 63 1018.4
20260505161845 23 125 6.4 19.3 0.00 0.00 0.00 64 1018.6
20260505160330 23 190 6.4 14.5 0.00 0.00 0.00 66 1018.8
20260505153346 22 200 8.0 17.7 0.00 0.00 0.00 67 1019.0
20260505151825 22 206 11.3 17.7 0.00 0.00 0.00 66 1019.2
20260505150325 21 194 9.7 16.1 0.00 0.00 0.00 67 1019.1
20260505140326 20 220 8.0 17.7 0.00 0.00 0.00 72 1019.1
20260505124832 17 223 9.7 16.1 0.00 0.00 0.00 78 1019.2
20260505123332 16 261 3.2 11.3 0.00 0.00 0.00 79 1019.2
20260505121832 15 286 6.4 11.3 0.00 0.00 0.00 79 1019.2
20260505120331 15 223 4.8 11.3 0.00 0.00 0.00 80 1019.1
20260505114859 14 218 1.6 4.8 0.00 0.00 0.00 81 1019.1
20260505113346 13 211 1.6 6.4 0.00 0.00 0.00 81 1018.9
20260505111836 12 193 0.0 3.2 0.00 0.00 0.00 80 1018.7
20260505110326 12 186 0.0 1.6 0.00 0.00 0.00 79 1018.6
20260505101834 12 186 0.0 1.6 0.00 0.00 0.00 78 1017.9
20260505100349 12 186 0.0 4.8 0.00 0.00 0.00 77 1017.9
20260505094830 12 229 0.0 1.6 0.00 0.00 0.00 76 1017.9
20260505093355 12 229 1.6 4.8 0.00 0.00 0.00 77 1017.8
20260505091848 13 229 1.6 3.2 0.00 0.00 0.00 77 1017.6
20260505090409 13 230 0.0 3.2 0.00 0.00 0.00 76 1017.4
20260505084852 13 230 0.0 1.6 0.00 0.00 0.00 75 1017.4
20260505083332 14 230 1.6 6.4 0.00 0.00 0.00 75 1017.3
20260505081850 14 232 4.8 8.0 0.00 0.00 0.00 76 1017.1
20260505080323 14 246 0.0 8.0 0.00 0.00 0.00 74 1016.9
20260505074848 15 229 1.6 9.7 0.00 0.00 0.00 74 1016.9
20260505073338 15 195 1.6 8.0 0.00 0.00 0.00 74 1016.9
20260505071831 15 227 3.2 8.0 0.00 0.00 0.00 74 1016.9
20260505070329 15 253 3.2 6.4 0.00 0.00 0.00 73 1016.9
20260505064857 15 222 3.2 6.4 0.00 0.00 0.00 72 1016.9
20260505063333 15 192 4.8 9.7 0.00 0.00 0.00 72 1016.9
20260505061851 15 267 3.2 11.3 0.00 0.00 0.00 71 1016.9
20260505060411 16 235 3.2 12.9 0.00 0.00 0.00 71 1017.1
20260505054847 16 222 3.2 8.0 0.00 0.00 0.00 70 1017.2
20260505053349 16 221 4.8 11.3 0.00 0.00 0.00 70 1017.3
20260505051839 16 225 6.4 11.3 0.00 0.00 0.00 70 1017.4
20260505050333 17 238 6.4 11.3 0.00 0.00 0.00 70 1017.6
20260505040326 17 224 4.8 12.9 0.00 0.00 0.00 68 1017.3
20260505034832 17 212 3.2 14.5 0.00 0.00 0.00 67 1017.4
20260505033348 17 217 4.8 12.9 0.00 0.00 0.00 67 1017.4
20260505031905 17 238 6.4 12.9 0.00 0.00 0.00 67 1017.4
20260505030328 18 215 3.2 8.0 0.00 0.00 0.00 65 1017.6
20260505024857 18 212 8.0 16.1 0.00 0.00 0.00 66 1017.4
20260505023346 18 246 8.0 19.3 0.00 0.00 0.00 64 1017.2
20260505021828 19 115 3.2 12.9 0.00 0.00 0.00 63 1017.2
20260505020348 19 195 3.2 16.1 0.00 0.00 0.00 63 1017.2
20260505014846 20 300 4.8 14.5 0.00 0.00 0.00 62 1017.0
20260505013336 20 154 3.2 19.3 0.00 0.00 0.00 59 1016.7
20260505011835 20 155 4.8 12.9 0.00 0.00 0.00 58 1016.5
20260505010329 20 229 3.2 6.4 0.00 0.00 0.00 54 1016.1
20260505004824 20 216 0.0 3.2 0.00 0.00 0.00 49 1016.0
20260505003335 21 217 1.6 4.8 0.00 0.00 0.00 48 1015.7
20260505001831 21 215 1.6 9.7 0.00 0.00 0.00 48 1015.7
20260505000351 22 339 1.6 8.0 0.00 0.00 0.00 48 1015.5
20260504234909 22 200 1.6 8.0 0.00 0.00 0.00 46 1015.4
20260504233349 23 236 3.2 8.0 0.00 0.00 0.00 45 1015.2
20260504231846 23 211 4.8 11.3 0.00 0.00 0.00 44 1015.0
20260504230338 24 212 3.2 8.0 0.00 0.00 0.00 43 1015.0